Погода в Наушках

Россия / Республика Бурятия     50°23′16″N   106°06′10″E
темп.,
°C
ветер,
м/с
пор.,
м/с
влажн.,
%
обл.,
%
осадки,
мм/ч
давл.,
гПа
погр.,
м
27 января, ср
ср2723:00−23зсз2289100 0.0 103520
02:00−24з1294100 0.1 103620
05:00−25з1291100 0.1 103620
08:00−28зсз2279100 0.1 103819
11:00−25з2280100 0.0 103892
14:00−21зсз267295 0.0 1037352
17:00−24з227420 0.0 103824
20:00−28зюз22739 0.0 104019
28 января, чт
чт2823:00−29юз12750 0.0 103920
02:00−31ююз12851 0.0 103721
05:00−32юз11887 0.0 103420
08:00−30юз118623 0.0 103322
11:00−26ююз2381100 0.0 1030162
14:00−22ююз2375100 0.0 1026324
17:00−22юв1287100 0.0 102531
20:00−23ю2289100 0.0 102524
29 января, пт
пт2923:00−26в019371 0.0 102320
02:00−27зюз119680 0.0 102219
05:00−27зсз019693 0.0 102319
08:00−24з119896 0.1 102420
11:00−21з119696 0.0 102446
14:00−18зсз118793 0.0 1023215
17:00−20вюв119486 0.0 102220
20:00−21вюв119590 0.0 102220
30 января, сб
сб3023:00−21вюв0195100 0.0 102020
02:00−21зюз1194100 0.0 101820
05:00−23з119695 0.0 101920
08:00−21ю228998 0.0 102223
11:00−17вюв118236 0.0 102252
14:00−14с117954 0.0 1020185
17:00−16св118894 0.0 101920
20:00−17ююв118897 0.0 101920
31 января, вс
вс3123:00−19ссв229983 0.1 101921
02:00−17ссв189791 1.1 1020335
05:00−20ссв2486100 0.1 102469
08:00−21сз3675100 0.1 1031183
11:00−23сз246979 0.0 1037375
14:00−22зсз566766 0.0 1040731
17:00−24з34740 0.0 104172
20:00−27з227222 0.0 104420